Weather History for Marion, IN

Change the Weather History Date:

Monday, July 21, 2014

  Actual Average (KMIE) Record (KMIE)
Temperature  
Mean Temperature 68 °F 74 °F  
Max Temperature 82 °F 84 °F 99 °F (1983)
Min Temperature 55 °F 64 °F 48 °F (1970)
Degree Days  
Heating Degree Days 0 0  
Month to date heating degree days 0  
Since 1 June heating degree days 24  
Since 1 July heating degree days 0  
Cooling Degree Days 4 9  
Month to date cooling degree days 207  
Year to date cooling degree days 506  
Since 1 June cooling degree days 423  
Growing Degree Days 18 (Base 50)    
Moisture  
Dew Point 60 °F    
Average Humidity 75    
Maximum Humidity 97    
Minimum Humidity 46    
Precipitation  
Precipitation 0.00 in 0.15 in 1.75 in (2001)
Month to date precipitation 3.08  
Year to date precipitation 23.31  
Sea Level Pressure  
Sea Level Pressure 30.12 in    
Wind  
Wind Speed 0 mph (SW)    
Max Wind Speed 5 mph    
Max Gust Speed -    
Visibility 7 miles    
Events      
T = Trace of Precipitation, MM = Missing Value Source: NWS Daily Summary

Daily Weather History Graph

Daily Weather History Graph

Search for Another Location

Airport:

Trip Planner

Search our weather history database for the weather conditions in past years. The results will help you decide how hot, cold, wet, or windy it might be!

Date:

Astronomy

Jul. 21, 2014 Rise Set
Actual Time 6:29 AM EDT 9:07 PM EDT
Civil Twilight 5:58 AM EDT 9:39 PM EDT
Nautical Twilight 5:18 AM EDT 10:18 PM EDT
Astronomical Twilight 4:34 AM EDT 11:03 PM EDT
Moon 2:20 AM EDT (7/21) 4:49 PM EDT (7/21)
Length of Visible Light 15h 41m
Length of Day
14h 37m
Waning Crescent, 24% of the Moon is Illuminated
Jul 21
Waning Crescent
Jul 26
New
Aug 3
First Quarter
Aug 10
Full
Aug 17
Last Quarter

Hourly Weather History & Observations

Time (EDT) Temp. Heat Index Dew Point Humidity Pressure Visibility Wind Dir Wind Speed Gust Speed Precip Events Conditions
12:15 AM 60.6 °F - 58.8 °F 94% 30.07 in 7.0 mi Calm Calm - N/A   Clear
12:35 AM 60.3 °F - 58.6 °F 94% 30.08 in 10.0 mi Calm Calm - N/A   Clear
12:55 AM 60.4 °F - 59.2 °F 96% 30.08 in 7.0 mi Calm Calm - N/A   Clear
1:15 AM 59.7 °F - 58.3 °F 95% 30.08 in 7.0 mi Calm Calm - N/A   Clear
1:35 AM 59.0 °F - 57.6 °F 95% 30.08 in 7.0 mi Calm Calm - N/A   Clear
1:55 AM 59.0 °F - 57.7 °F 96% 30.07 in 5.0 mi Calm Calm - N/A   Clear
2:15 AM 58.8 °F - 57.7 °F 96% 30.08 in 7.0 mi Calm Calm - N/A   Clear
2:35 AM 58.8 °F - 57.7 °F 96% 30.07 in 7.0 mi Calm Calm - N/A   Clear
2:55 AM 58.6 °F - 57.7 °F 97% 30.07 in 7.0 mi Calm Calm - N/A   Clear
3:15 AM 58.5 °F - 57.4 °F 96% 30.08 in 7.0 mi Calm Calm - N/A   Clear
3:35 AM 57.9 °F - 56.8 °F 96% 30.08 in 2.5 mi Calm Calm - N/A   Clear
3:55 AM 57.4 °F - 56.5 °F 97% 30.08 in 1.0 mi Calm Calm - N/A   Mist
4:15 AM 57.2 °F - 56.5 °F 97% 30.09 in 5.0 mi Calm Calm - N/A   Clear
4:35 AM 56.8 °F - 55.9 °F 97% 30.09 in 5.0 mi Calm Calm - N/A   Clear
4:55 AM 57.0 °F - 56.3 °F 97% 30.09 in 5.0 mi Calm Calm - N/A   Clear
5:15 AM 56.1 °F - 55.2 °F 97% 30.10 in 7.0 mi Calm Calm - N/A   Clear
5:35 AM 56.1 °F - 55.2 °F 97% 30.10 in 7.0 mi Calm Calm - N/A   Clear
5:55 AM 55.9 °F - 55.0 °F 97% 30.10 in 5.0 mi Calm Calm - N/A   Clear
6:15 AM 56.3 °F - 55.4 °F 97% 30.11 in 4.0 mi Calm Calm - N/A   Clear
6:35 AM 56.5 °F - 55.6 °F 97% 30.11 in 2.5 mi Calm Calm - N/A   Clear
6:55 AM 57.0 °F - 56.1 °F 97% 30.12 in 5.0 mi Calm Calm - N/A   Clear
7:15 AM 56.5 °F - 55.8 °F 97% 30.13 in 5.0 mi Calm Calm - N/A   Clear
7:35 AM 58.1 °F - 57.4 °F 97% 30.14 in 7.0 mi Calm Calm - N/A   Clear
7:55 AM 60.4 °F - 59.5 °F 97% 30.14 in 5.0 mi Calm Calm - N/A   Clear
8:15 AM 63.1 °F - 61.9 °F 96% 30.15 in 5.0 mi Calm Calm - N/A   Clear
8:35 AM 65.3 °F - 62.8 °F 92% 30.16 in 7.0 mi Calm Calm - N/A   Clear
8:55 AM 67.1 °F - 63.7 °F 89% 30.16 in 7.0 mi Calm Calm - N/A   Clear
9:35 AM 70.5 °F - 64.6 °F 81% 30.16 in 7.0 mi Calm Calm - N/A   Clear
9:55 AM 72.3 °F - 64.6 °F 77% 30.16 in 7.0 mi Calm Calm - N/A   Clear
10:15 AM 73.8 °F - 65.3 °F 75% 30.15 in 10.0 mi Calm Calm - N/A   Clear
10:35 AM 74.8 °F - 64.8 °F 71% 30.15 in 7.0 mi SE 3.5 mph - N/A   Clear
10:55 AM 75.9 °F - 64.0 °F 67% 30.15 in 7.0 mi Calm Calm - N/A   Clear
11:15 AM 77.2 °F - 63.0 °F 61% 30.15 in 7.0 mi Calm Calm - N/A   Clear
11:35 AM 77.9 °F - 62.6 °F 59% 30.15 in 10.0 mi South 3.5 mph - N/A   Clear
11:55 AM 78.4 °F - 61.2 °F 55% 30.15 in 7.0 mi South 4.6 mph - N/A   Scattered Clouds
12:15 PM 78.6 °F - 61.3 °F 55% 30.14 in 10.0 mi West 3.5 mph - N/A   Scattered Clouds
12:35 PM 78.4 °F - 61.0 °F 55% 30.15 in 7.0 mi Calm Calm - N/A   Mostly Cloudy
12:55 PM 79.3 °F - 61.5 °F 54% 30.14 in 10.0 mi SSW 3.5 mph - N/A   Scattered Clouds
1:15 PM 79.3 °F - 61.9 °F 55% 30.14 in 10.0 mi Calm Calm - N/A   Scattered Clouds
1:35 PM 80.4 °F 81.3 °F 61.0 °F 51% 30.14 in 10.0 mi Calm Calm - N/A   Scattered Clouds
1:55 PM 79.9 °F - 60.8 °F 52% 30.14 in 7.0 mi WNW 4.6 mph - N/A   Mostly Cloudy
2:15 PM 80.8 °F 81.5 °F 60.4 °F 50% 30.14 in 10.0 mi Calm Calm - N/A   Mostly Cloudy
2:35 PM 80.1 °F 80.8 °F 59.4 °F 49% 30.13 in 7.0 mi South 3.5 mph - N/A   Mostly Cloudy
2:55 PM 80.8 °F 81.4 °F 59.7 °F 49% 30.13 in 7.0 mi Calm Calm - N/A   Mostly Cloudy
3:15 PM 80.6 °F 81.2 °F 59.5 °F 49% 30.12 in 7.0 mi Calm Calm - N/A   Mostly Cloudy
3:35 PM 80.1 °F 81.0 °F 60.4 °F 51% 30.12 in 10.0 mi WSW 4.6 mph - N/A   Mostly Cloudy
3:55 PM 80.2 °F 81.0 °F 60.1 °F 50% 30.11 in 7.0 mi Calm Calm - N/A   Overcast
4:15 PM 81.1 °F 81.9 °F 60.8 °F 50% 30.11 in 10.0 mi West 4.6 mph - N/A   Overcast
4:35 PM 82.4 °F 83.0 °F 61.3 °F 49% 30.11 in 7.0 mi Calm Calm - N/A   Mostly Cloudy
4:55 PM 82.2 °F 82.4 °F 59.7 °F 46% 30.11 in 7.0 mi Calm Calm - N/A   Mostly Cloudy
5:15 PM 80.8 °F 81.5 °F 60.4 °F 50% 30.11 in 10.0 mi Calm Calm - N/A   Scattered Clouds
5:35 PM 82.0 °F 82.4 °F 60.1 °F 47% 30.10 in 10.0 mi Calm Calm - N/A   Clear
5:55 PM 82.6 °F 82.8 °F 59.9 °F 46% 30.11 in 10.0 mi Calm Calm - N/A   Clear
6:15 PM 82.9 °F 83.2 °F 59.9 °F 46% 30.11 in 10.0 mi Calm Calm - N/A   Scattered Clouds
6:35 PM 82.6 °F 82.8 °F 60.1 °F 46% 30.10 in 10.0 mi Calm Calm - N/A   Scattered Clouds
6:55 PM 82.2 °F 82.7 °F 60.8 °F 48% 30.11 in 10.0 mi Calm Calm - N/A   Clear
7:15 PM 81.9 °F 82.2 °F 60.1 °F 47% 30.11 in 10.0 mi Calm Calm - N/A   Clear
7:35 PM 81.3 °F 81.9 °F 60.6 °F 49% 30.11 in 7.0 mi Calm Calm - N/A   Clear
7:55 PM 80.2 °F 81.4 °F 62.4 °F 54% 30.11 in 7.0 mi Calm Calm - N/A   Clear
8:15 PM 78.8 °F - 63.7 °F 60% 30.11 in 5.0 mi Calm Calm - N/A   Haze
8:35 PM 76.8 °F - 65.3 °F 67% 30.11 in 7.0 mi Calm Calm - N/A   Clear
8:55 PM 74.1 °F - 66.0 °F 76% 30.10 in 7.0 mi Calm Calm - N/A   Clear
9:15 PM 71.8 °F - 65.7 °F 81% 30.11 in 7.0 mi Calm Calm - N/A   Clear
9:55 PM 68.7 °F - 64.6 °F 87% 30.12 in 10.0 mi Calm Calm - N/A   Clear
10:15 PM 67.6 °F - 64.0 °F 88% 30.12 in 10.0 mi Calm Calm - N/A   Clear
10:35 PM 66.6 °F - 63.9 °F 91% 30.12 in 7.0 mi Calm Calm - N/A   Clear
10:55 PM 66.6 °F - 63.7 °F 90% 30.12 in 7.0 mi Calm Calm - N/A   Clear
11:15 PM 66.6 °F - 63.3 °F 89% 30.12 in 10.0 mi Calm Calm - N/A   Clear
11:35 PM 65.5 °F - 63.1 °F 92% 30.12 in 7.0 mi Calm Calm - N/A   Clear
11:55 PM 64.8 °F - 62.8 °F 93% 30.12 in 7.0 mi Calm Calm - N/A   Clear